Weather Roundup
Issued by NWS Chicago, IL

Home | Current Version | Previous Version | Text Only | Print | Product List | Glossary On
Versions: 1 2 3 4 5 6 7 8 9 10 11 12 13 14 15 16 17 18 19 20 21 22 23 24 25 26 27 28 29 30 31 32 33 34 35 36 37 38 39 40 41 42 43 44 45 46 47 48 49 50
000
NZUS59 KLOT 070108
HRRLOT

CHICAGO AREA WEATHER ROUNDUP
NATIONAL WEATHER SERVICE CHICAGO/ROMEOVILLE IL
700 PM CST SAT FEB 06 2016

NOTE: "FAIR" INDICATES FEW OR NO CLOUDS BELOW 12,000 FEET WITH NO
SIGNIFICANT WEATHER AND/OR OBSTRUCTIONS TO VISIBILITY.

* THESE STATIONS ARE NOT UNDER NWS QUALITY CONTROL. THEY ALSO MAY NOT
  REPORT WEATHER SUCH AS PRECIPITATION OR FOG.

ILZ005-006-012>014-019>023-070200-
NORTHEAST ILLINOIS

CITY           SKY/WX    TMP DP  RH WIND       PRES   REMARKS
OHARE          CLEAR     33  27  78 S6        30.12F WCI  28
MIDWAY         CLEAR     38  27  64 S6        30.14F
AURORA         CLEAR     35  29  78 S6        30.13F WCI  30
LANSING*       CLEAR     31  27  84 S7        30.16F WCI  25
JOLIET*        CLEAR     32  28  86 S3        30.15F
WAUKEGAN       CLEAR     30  26  85 SW3       30.11F
DUPAGE AIRPORT CLEAR     32  25  75 S5        30.12F WCI  27
WHEELING       CLEAR     34  27  75 S6        30.13F WCI  29
KANKAKEE*      CLEAR     33  29  86 S6        30.17S WCI  28
MORRIS*          N/A     36  30  78 S5        30.12F
LEWIS AIRPORT* CLEAR     33  27  79 S6        30.14F WCI  28
$$

WIZ051-052-058>065-066-070>072-070200-
SOUTHEAST WISCONSIN

CITY           SKY/WX    TMP DP  RH WIND       PRES   REMARKS
MILWAUKEE      PTCLDY    31  25  78 SW3       30.10F
KENOSHA*       CLEAR     30  24  78 S5        30.11F WCI  25
RACINE*        CLEAR     31  25  78 SW5       30.12F WCI  26
BURLINGTON     CLEAR     26  24  91 CALM      30.10F
WAUKESHA       CLEAR     27  25  93 CALM      30.10F
$$

INZ001>003-010>013-019-020-070200-
NORTHWEST INDIANA

CITY           SKY/WX    TMP DP  RH WIND       PRES   REMARKS
GARY*          CLEAR     32  27  80 S5        30.17S WCI  27
MICHIGAN CITY* NOT AVBL
RENSSELAER*    NOT AVBL
VALPARAISO     CLEAR     35  28  75 S5        30.17S WCI  31
$$

LMZ740>746-070200-
SOUTHERN LAKE MICHIGAN

STATION/POSITION TIME  SKY/WX   TEMP WIND        PRES    VSBY
                                AIR  DIR/SP/G
                 (UTC)          (F)  (DEG/KT/KT) (MB)    (MI)
HARRISON CRIB    0000            42  210/ 12/ 15   N/A
BURNHAM HARBOR   0100            38  170/  4/  6   N/A
CALUMET HARBOR   0000            38  180/  3/  4 1020.5R
BURNS HARBOR     0000            37  190/  5/  6 1022.0S
MICHIGAN CITY    0000            38  170/  7/  8   N/A
$$

ABBREVIATIONS USED IN REMARKS
   TC - TEMPERATURE IN CELSIUS
  WCI - WIND CHILL INDEX
   HX - HEAT INDEX
  VSB - VISIBILITY
$$



USA.gov is the U.S. government's official web portal to all federal, state and local government web resources and services.